Precipitable_Water
1.23 1.18 1.17 1.15 1.13 1.10 1.05 0.99 0.93 0.88 0.86 0.85 0.86 0.85 0.84 0.85 0.86 0.87 0.88 0.88 0.90 0.91 0.91 0.89 0.87 0.87 0.87 0.89 0.91 0.90 0.95 0.97
1.24 1.21 1.18 1.16 1.13 1.10 1.06 1.01 0.95 0.91 0.89 0.88 0.87 0.86 0.87 0.88 0.88 0.88 0.89 0.89 0.90 0.92 0.93 0.93 0.93 0.92 0.89 0.88 0.91 0.90 0.94 0.98
1.25 1.22 1.19 1.17 1.16 1.14 1.08 1.04 1.00 0.95 0.93 0.92 0.91 0.90 0.92 0.95 0.92 0.94 0.91 0.92 0.94 0.97 0.98 0.96 0.92 0.89 0.89 0.91 0.93 1.03 1.07 1.05
1.09 1.16 1.16 1.16 1.15 1.15 1.10 1.10 1.05 1.02 0.99 0.99 0.95 0.97 1.00 1.00 0.99 0.97 0.97 0.97 0.98 0.99 0.99 0.96 0.90 0.91 0.92 0.91 0.97 1.12 1.11 1.02
1.01 1.06 1.09 1.09 1.10 1.12 1.12 1.12 1.10 1.08 1.07 1.07 1.02 1.04 1.03 1.00 1.04 1.01 1.03 1.03 1.04 1.05 1.05 1.02 1.00 0.99 0.96 0.96 1.04 1.13 1.10 1.09
0.99 1.05 1.09 1.10 1.08 1.06 1.10 1.10 1.13 1.11 1.11 1.11 1.06 1.05 1.03 1.01 1.03 1.08 1.09 1.13 1.10 1.16 1.12 1.11 1.12 1.08 1.03 1.00 1.04 1.07 1.10 1.08
0.96 1.04 1.06 1.09 1.11 1.09 1.08 1.08 1.10 1.13 1.12 1.13 1.10 1.07 1.05 1.06 1.06 1.10 1.13 1.16 1.16 1.18 1.18 1.16 1.12 1.09 1.09 1.06 1.07 1.11 1.12 1.05
0.95 1.01 1.07 1.10 1.06 1.09 1.09 1.11 1.12 1.13 1.10 1.09 1.10 1.09 1.09 1.09 1.10 1.11 1.15 1.19 1.20 1.20 1.23 1.21 1.13 1.09 1.12 1.15 1.16 1.18 1.16 1.14
0.93 0.98 1.06 1.06 1.07 1.10 1.14 1.14 1.17 1.17 1.14 1.13 1.11 1.12 1.11 1.12 1.12 1.14 1.18 1.22 1.23 1.23 1.26 1.27 1.17 1.15 1.14 1.21 1.24 1.23 1.19 1.17
0.99 1.01 1.02 1.07 1.09 1.11 1.13 1.18 1.23 1.22 1.19 1.14 1.12 1.13 1.14 1.14 1.12 1.14 1.21 1.23 1.23 1.21 1.23 1.22 1.20 1.18 1.17 1.21 1.25 1.28 1.27 1.27
1.03 1.06 1.01 1.05 1.10 1.15 1.18 1.20 1.23 1.23 1.22 1.16 1.14 1.15 1.15 1.14 1.14 1.17 1.24 1.23 1.23 1.23 1.23 1.25 1.22 1.21 1.21 1.24 1.27 1.30 1.33 1.34
1.05 1.09 1.09 1.09 1.14 1.17 1.19 1.21 1.23 1.22 1.20 1.20 1.20 1.20 1.18 1.15 1.15 1.18 1.24 1.21 1.20 1.23 1.22 1.27 1.27 1.26 1.26 1.25 1.30 1.37 1.38 1.38
1.01 1.05 1.11 1.16 1.13 1.06 1.07 1.06 1.19 1.19 1.24 1.30 1.34 1.35 1.34 1.29 1.23 1.25 1.29 1.24 1.24 1.29 1.29 1.26 1.26 1.36 1.29 1.29 1.37 1.47 1.46 1.43
1.01 1.06 1.14 1.19 1.20 1.22 1.17 1.18 1.21 1.25 1.32 1.36 1.41 1.41 1.41 1.39 1.38 1.31 1.32 1.32 1.32 1.34 1.36 1.32 1.34 1.45 1.29 1.33 1.20 1.31 1.36 1.39
0.95 1.06 1.15 1.21 1.23 1.24 1.24 1.26 1.24 1.18 1.25 1.31 1.39 1.46 1.49 1.50 1.48 1.49 1.44 1.44 1.39 1.41 1.46 1.46 1.34 1.46 1.53 1.37 1.12 1.04 1.11 1.24
0.79 0.98 1.07 1.18 1.26 1.17 1.12 1.08 1.04 1.15 1.25 1.32 1.37 1.45 1.48 1.55 1.59 1.60 1.58 1.59 1.53 1.53 1.56 1.52 1.51 1.36 1.49 1.49 1.42 1.33 1.09 1.02
0.83 0.94 1.00 1.11 1.18 1.19 1.16 1.14 1.17 1.26 1.30 1.30 1.36 1.43 1.48 1.51 1.55 1.59 1.59 1.65 1.67 1.64 1.55 1.49 1.48 1.42 1.40 1.33 1.31 1.36 1.33 1.18
0.82 0.88 0.96 1.07 1.16 1.19 1.13 1.12 1.15 1.16 1.20 1.24 1.30 1.36 1.39 1.44 1.50 1.56 1.62 1.61 1.59 1.58 1.53 1.45 1.42 1.47 1.48 1.43 1.31 1.31 1.20 1.19
0.93 0.95 0.94 1.04 1.10 1.16 1.18 1.19 1.21 1.18 1.20 1.23 1.26 1.31 1.35 1.42 1.52 1.58 1.57 1.52 1.53 1.45 1.41 1.41 1.42 1.43 1.42 1.37 1.46 1.37 1.40 1.35
0.81 0.85 0.89 0.99 1.04 1.10 1.19 1.23 1.23 1.23 1.25 1.24 1.25 1.28 1.33 1.41 1.38 1.39 1.42 1.40 1.37 1.38 1.38 1.39 1.42 1.42 1.37 1.37 1.43 1.34 1.33 1.37
Wind_Speed
16 18 18 17 16 14 13 12 11 10 9 9 8 8 8 8 8 8 8 7 7 7 7 7 7 8 8 9 9 9 9 10
16 18 18 17 17 16 15 14 13 12 11 10 10 9 9 9 9 9 9 9 9 8 8 8 9 9 9 10 10 10 11 11
17 17 18 17 17 16 16 15 14 14 13 12 12 11 11 11 11 12 11 11 11 10 11 11 11 11 11 11 12 12 12 13
15 17 17 17 17 16 17 16 16 16 15 14 14 13 13 13 13 14 13 13 13 13 13 13 13 13 13 13 14 14 14 14
15 16 17 18 17 17 17 17 17 17 17 16 16 15 15 15 15 15 16 16 15 15 15 15 15 14 14 14 15 15 15 15
14 15 17 18 18 18 18 18 18 18 19 19 18 17 17 16 16 17 18 17 18 17 17 17 17 17 17 17 17 17 17 17
15 16 17 17 19 18 19 19 19 20 20 20 20 19 19 19 19 19 19 20 20 19 19 18 19 19 18 19 19 19 19 19
17 18 18 19 19 20 20 21 21 22 21 22 22 22 21 21 21 21 21 22 21 21 20 20 20 20 20 21 21 21 21 22
20 20 20 20 21 21 21 22 23 23 23 24 24 24 23 23 22 22 22 23 23 23 22 22 22 22 23 23 23 23 24 24
22 22 22 22 22 22 22 22 23 24 24 25 25 25 24 23 23 23 23 24 24 24 24 24 24 24 25 25 25 26 26 27
25 25 25 24 24 23 23 23 23 24 25 25 25 25 25 25 24 24 25 24 25 25 26 27 27 27 27 28 28 28 29 29
24 26 27 26 26 25 25 25 24 24 24 24 25 26 26 26 26 26 26 26 27 27 28 28 29 30 30 30 31 31 32 32
23 24 26 26 27 27 28 28 26 25 26 26 25 26 25 26 26 26 27 27 28 29 30 30 31 31 32 33 34 34 34 34
24 25 25 26 27 28 29 29 29 28 27 27 28 28 28 27 28 28 28 28 29 30 31 31 32 32 32 33 32 34 34 36
25 25 25 26 26 26 28 30 29 29 29 29 29 30 31 30 30 30 30 31 31 32 33 34 33 34 34 33 30 32 33 34
24 25 25 25 25 25 25 26 27 28 29 30 30 32 32 33 34 34 34 34 34 34 35 35 35 35 34 36 37 36 34 35
17 20 21 23 24 24 24 25 27 28 30 31 32 33 35 35 36 37 37 37 37 36 36 36 36 36 36 35 37 37 37 36
9 11 15 19 22 24 26 27 28 29 31 33 34 35 36 37 37 38 38 38 39 38 37 37 37 39 40 40 39 37 38 37
9 11 14 17 19 22 25 27 29 31 32 33 34 34 35 36 37 38 38 38 38 37 38 38 39 40 40 41 41 41 39 39
14 15 17 20 22 25 27 30 31 33 34 35 35 35 35 35 35 36 36 36 36 37 38 39 39 39 40 40 40 39 39 37
Wind_Direction
189 191 195 199 202 206 208 210 213 217 221 226 231 235 237 238 239 241 244 248 250 254 259 266 273 276 279 283 285 288 294 296
193 197 200 205 209 213 214 218 222 226 229 234 238 243 244 245 245 245 248 252 253 257 262 267 273 278 280 283 284 286 287 291
200 203 207 211 214 217 220 225 228 231 236 239 243 248 249 249 250 249 250 253 257 259 264 268 273 277 279 281 282 284 286 287
203 206 210 214 218 222 226 230 233 237 239 242 245 250 253 253 253 252 252 255 259 263 267 269 272 275 278 279 281 283 284 286
208 212 215 218 222 226 229 233 236 240 242 243 246 250 253 255 256 254 254 256 260 263 267 268 269 274 277 279 280 281 282 283
215 218 222 224 227 231 234 237 240 243 244 244 247 250 254 256 258 256 255 257 259 262 267 268 270 272 274 277 278 280 281 282
226 226 228 230 233 237 240 243 244 246 246 246 247 251 255 257 258 258 258 258 259 262 265 268 269 271 273 275 277 278 279 281
233 233 234 235 238 240 245 246 248 249 249 249 248 252 255 258 259 259 259 259 260 262 265 268 269 270 272 274 276 277 277 279
239 238 239 240 242 245 248 250 251 251 251 251 251 253 256 259 259 259 260 260 260 261 264 267 269 271 272 274 275 276 277 278
242 242 243 243 246 248 250 252 253 252 252 252 252 253 255 257 259 260 261 261 261 262 264 266 269 271 273 275 275 276 277 278
244 245 245 246 247 249 251 252 255 255 254 253 253 254 254 256 260 261 261 262 262 263 265 266 269 271 272 274 275 277 277 278
246 248 247 248 250 251 252 253 256 255 254 254 254 255 256 257 260 262 262 263 263 264 266 268 270 271 273 274 275 276 277 277
247 249 247 248 249 250 252 253 255 255 254 254 255 256 257 259 261 262 263 264 265 266 268 269 271 272 273 275 276 277 276 277
250 250 250 250 252 254 253 254 255 255 255 256 256 258 259 261 262 263 264 266 267 268 269 271 272 271 273 276 280 279 277 279
251 252 253 250 253 257 255 253 255 253 254 256 258 259 260 262 263 264 266 267 269 270 270 270 273 272 270 274 281 281 283 282
254 255 254 249 251 256 255 253 252 253 257 259 260 262 263 263 264 265 266 268 270 271 272 271 272 274 274 273 276 280 283 285
258 255 249 248 251 255 257 256 257 259 261 262 264 265 266 266 266 266 267 268 271 271 272 271 271 273 274 276 278 277 279 283
266 255 251 255 256 257 258 260 262 264 264 266 267 268 268 267 266 267 268 269 271 272 271 271 272 273 275 274 277 277 278 278
281 273 269 266 263 263 264 265 266 267 268 268 268 269 269 269 267 268 269 270 270 271 272 273 274 274 275 275 274 276 277 277
287 283 280 276 274 272 271 270 270 271 271 270 270 270 270 270 269 268 268 269 270 272 273 275 275 275 275 275 275 275 276 276